Total_Precipitation_Accumulation
0.00 0.00 0.00 0.00 0.00 0.00 0.00 0.00 0.00 0.00 0.00 0.00 0.00 0.00 0.00 0.00 0.00 0.00 0.00 0.00 0.00 0.00 0.01 0.01 0.02 0.03 0.05 0.08 0.10 0.11 0.11 0.11 0.12 0.12 0.13 0.13 0.13 0.13 0.14 0.15 0.16 0.17 0.18
0.00 0.00 0.00 0.00 0.00 0.00 0.00 0.00 0.00 0.00 0.00 0.00 0.00 0.00 0.00 0.00 0.00 0.00 0.00 0.00 0.00 0.00 0.00 0.00 0.01 0.02 0.05 0.07 0.10 0.12 0.12 0.13 0.13 0.13 0.14 0.14 0.15 0.15 0.15 0.16 0.17 0.18 0.19
0.00 0.00 0.00 0.00 0.00 0.00 0.00 0.00 0.00 0.00 0.00 0.00 0.00 0.00 0.00 0.00 0.00 0.00 0.00 0.00 0.00 0.00 0.00 0.00 0.01 0.02 0.02 0.04 0.06 0.09 0.11 0.13 0.15 0.16 0.17 0.18 0.18 0.18 0.18 0.19 0.20 0.21 0.22
0.01 0.01 0.01 0.00 0.00 0.00 0.00 0.00 0.00 0.00 0.00 0.00 0.00 0.00 0.00 0.00 0.00 0.00 0.00 0.00 0.00 0.00 0.00 0.00 0.01 0.01 0.01 0.01 0.03 0.05 0.07 0.10 0.12 0.14 0.16 0.19 0.21 0.22 0.24 0.26 0.27 0.27 0.27
0.04 0.03 0.02 0.01 0.00 0.00 0.00 0.00 0.00 0.00 0.00 0.00 0.00 0.00 0.00 0.00 0.00 0.00 0.00 0.00 0.00 0.00 0.00 0.00 0.00 0.00 0.00 0.01 0.01 0.03 0.05 0.08 0.09 0.10 0.12 0.14 0.17 0.20 0.23 0.27 0.31 0.34 0.36
0.08 0.06 0.04 0.02 0.01 0.00 0.00 0.00 0.00 0.00 0.00 0.00 0.00 0.00 0.00 0.00 0.00 0.00 0.00 0.00 0.00 0.00 0.00 0.00 0.00 0.00 0.00 0.01 0.01 0.02 0.03 0.05 0.07 0.08 0.10 0.12 0.14 0.17 0.20 0.24 0.29 0.34 0.41
0.15 0.11 0.07 0.05 0.03 0.01 0.01 0.01 0.01 0.01 0.01 0.00 0.01 0.01 0.00 0.00 0.00 0.00 0.00 0.00 0.00 0.00 0.00 0.00 0.00 0.00 0.01 0.01 0.01 0.01 0.02 0.02 0.04 0.07 0.09 0.11 0.14 0.18 0.22 0.25 0.29 0.35 0.41
0.20 0.15 0.10 0.08 0.06 0.04 0.02 0.02 0.02 0.02 0.01 0.01 0.02 0.03 0.02 0.01 0.00 0.00 0.00 0.00 0.00 0.00 0.00 0.00 0.00 0.00 0.01 0.01 0.01 0.01 0.01 0.01 0.02 0.07 0.12 0.16 0.19 0.22 0.26 0.31 0.35 0.38 0.42
0.22 0.20 0.17 0.14 0.11 0.09 0.06 0.06 0.05 0.05 0.05 0.04 0.04 0.07 0.07 0.04 0.03 0.01 0.00 0.00 0.00 0.00 0.00 0.00 0.00 0.00 0.00 0.00 0.00 0.00 0.01 0.02 0.03 0.04 0.10 0.17 0.23 0.29 0.34 0.39 0.43 0.48 0.53
0.23 0.23 0.22 0.20 0.19 0.16 0.14 0.14 0.14 0.13 0.12 0.10 0.07 0.07 0.08 0.09 0.10 0.08 0.03 0.02 0.01 0.01 0.01 0.01 0.01 0.01 0.01 0.01 0.01 0.01 0.02 0.04 0.06 0.06 0.10 0.21 0.31 0.41 0.50 0.57 0.64 0.71 0.73
0.21 0.23 0.24 0.25 0.24 0.25 0.27 0.28 0.27 0.25 0.24 0.21 0.18 0.17 0.16 0.15 0.15 0.16 0.10 0.05 0.04 0.03 0.03 0.03 0.02 0.02 0.02 0.02 0.02 0.02 0.04 0.07 0.09 0.11 0.19 0.31 0.43 0.56 0.71 0.83 0.91 0.93 0.91
0.22 0.23 0.25 0.27 0.31 0.32 0.34 0.36 0.37 0.38 0.38 0.35 0.31 0.28 0.28 0.26 0.22 0.24 0.20 0.13 0.10 0.07 0.06 0.05 0.04 0.04 0.03 0.03 0.03 0.04 0.04 0.05 0.08 0.12 0.23 0.37 0.48 0.61 0.74 0.88 0.98 1.02 1.05
0.17 0.20 0.25 0.30 0.35 0.39 0.42 0.42 0.40 0.40 0.43 0.45 0.44 0.42 0.41 0.37 0.35 0.36 0.36 0.28 0.21 0.15 0.13 0.11 0.11 0.10 0.09 0.08 0.07 0.05 0.04 0.03 0.06 0.09 0.16 0.31 0.41 0.45 0.50 0.60 0.77 0.90 1.01
0.22 0.26 0.28 0.31 0.34 0.37 0.38 0.38 0.39 0.40 0.43 0.46 0.48 0.47 0.47 0.44 0.44 0.45 0.48 0.51 0.44 0.32 0.26 0.22 0.20 0.19 0.16 0.13 0.09 0.08 0.05 0.04 0.04 0.06 0.10 0.16 0.22 0.26 0.31 0.39 0.49 0.61 0.72
0.17 0.20 0.23 0.25 0.26 0.28 0.29 0.31 0.33 0.33 0.35 0.37 0.39 0.42 0.44 0.42 0.42 0.44 0.48 0.58 0.65 0.56 0.40 0.29 0.25 0.21 0.19 0.16 0.13 0.12 0.08 0.06 0.06 0.07 0.09 0.11 0.13 0.17 0.22 0.28 0.35 0.44 0.52
0.11 0.14 0.16 0.17 0.19 0.19 0.20 0.21 0.22 0.21 0.24 0.26 0.30 0.34 0.37 0.39 0.41 0.44 0.47 0.51 0.59 0.64 0.50 0.31 0.25 0.22 0.21 0.17 0.14 0.14 0.10 0.10 0.10 0.11 0.12 0.14 0.16 0.19 0.23 0.27 0.33 0.39 0.45
0.08 0.10 0.11 0.12 0.13 0.13 0.13 0.13 0.14 0.14 0.16 0.19 0.23 0.27 0.32 0.36 0.39 0.41 0.44 0.47 0.50 0.56 0.53 0.35 0.27 0.25 0.23 0.18 0.14 0.14 0.12 0.11 0.10 0.13 0.17 0.21 0.25 0.27 0.29 0.31 0.34 0.36 0.40
0.07 0.07 0.07 0.08 0.09 0.09 0.09 0.09 0.10 0.11 0.12 0.14 0.17 0.20 0.24 0.28 0.32 0.37 0.41 0.41 0.41 0.43 0.49 0.41 0.26 0.21 0.18 0.16 0.14 0.13 0.13 0.15 0.14 0.14 0.20 0.26 0.32 0.35 0.34 0.33 0.34 0.36 0.38
0.06 0.06 0.05 0.05 0.06 0.06 0.07 0.08 0.09 0.10 0.12 0.14 0.17 0.22 0.27 0.31 0.35 0.37 0.39 0.38 0.37 0.37 0.43 0.45 0.28 0.20 0.18 0.15 0.15 0.13 0.14 0.16 0.15 0.16 0.20 0.23 0.26 0.30 0.33 0.35 0.36 0.36 0.37
0.06 0.05 0.05 0.06 0.06 0.07 0.08 0.10 0.11 0.13 0.16 0.19 0.22 0.26 0.28 0.29 0.29 0.29 0.29 0.30 0.33 0.34 0.34 0.38 0.33 0.25 0.21 0.16 0.17 0.16 0.16 0.15 0.17 0.20 0.22 0.24 0.26 0.28 0.29 0.30 0.30 0.30 0.31
0.07 0.07 0.08 0.08 0.09 0.09 0.12 0.15 0.18 0.21 0.25 0.28 0.30 0.29 0.27 0.25 0.22 0.20 0.22 0.24 0.26 0.30 0.36 0.44 0.41 0.32 0.24 0.21 0.19 0.20 0.25 0.24 0.23 0.21 0.23 0.23 0.27 0.32 0.34 0.38 0.39 0.39 0.39
0.13 0.13 0.14 0.15 0.17 0.19 0.26 0.25 0.23 0.27 0.31 0.31 0.29 0.25 0.22 0.19 0.16 0.16 0.17 0.18 0.25 0.34 0.43 0.49 0.47 0.39 0.28 0.28 0.31 0.39 0.45 0.51 0.44 0.27 0.33 0.39 0.44 0.51 0.52 0.53 0.58 0.60 0.60
0.23 0.28 0.30 0.30 0.33 0.39 0.40 0.31 0.27 0.24 0.24 0.24 0.21 0.18 0.15 0.12 0.12 0.09 0.09 0.13 0.17 0.25 0.35 0.38 0.35 0.25 0.23 0.24 0.38 0.50 0.54 0.59 0.52 0.38 0.45 0.52 0.49 0.51 0.51 0.54 0.62 0.62 0.58
0.38 0.44 0.46 0.45 0.42 0.41 0.35 0.28 0.22 0.17 0.14 0.12 0.09 0.07 0.06 0.05 0.05 0.09 0.15 0.19 0.13 0.10 0.11 0.13 0.14 0.14 0.19 0.25 0.40 0.59 0.66 0.67 0.53 0.42 0.41 0.48 0.41 0.39 0.38 0.40 0.47 0.49 0.46
0.42 0.44 0.40 0.37 0.33 0.30 0.22 0.15 0.11 0.10 0.08 0.06 0.04 0.03 0.04 0.04 0.05 0.17 0.26 0.25 0.14 0.05 0.04 0.07 0.13 0.14 0.17 0.20 0.28 0.49 0.68 0.78 0.64 0.37 0.31 0.38 0.38 0.38 0.36 0.33 0.36 0.42 0.42
0.38 0.32 0.27 0.22 0.18 0.15 0.11 0.08 0.06 0.05 0.04 0.04 0.04 0.03 0.03 0.05 0.12 0.24 0.26 0.24 0.13 0.05 0.08 0.07 0.06 0.05 0.04 0.06 0.16 0.36 0.75 1.12 0.91 0.58 0.32 0.42 0.47 0.53 0.63 0.36 0.31 0.35 0.35